Location: Oulou
(10.7667°N, 12.5167°W)
Time: 00:19:41
(UTC+00:00)

CZ-2D R/B - Pass Details

Date: 20 September 2019
Orbit: 523 x 538 km, 97.4° (Epoch: 15 October)

Event Time Altitude Azimuth Distance (km) Brightness Sun altitude
Exits shadow 19:55:54 11° 161° (SSE) 1,680 5.6 -17.6°
Maximum altitude 19:59:29 68° 79° (E) 566 3.1 -18.5°
Drops below altitude 10° 20:03:14 10° 356° (N) 1,753 6.0 -19.4°
Sets 20:05:20 0° 353° (N) 2,640 6.9 -19.9°
